sat.trackr.live / text

‹ back to catalog

STARLINK-5963

NORAD 56780 · 2023-078P

PAYLOAD ACTIVE UNKNOWN

§ Identity

Operator
Country
US
Launch date
2023-05-31
Launch site
AFWTR
Launch vehicle
Mass (kg)
RCS (m²)

Purposes: comms

External: N2YO · Heavens-Above · Gunter

§ Orbital elements

Epoch: 2026-09-20T03:31:27.319872Z

Period
96.11 min
Inclination
69.9996°
Eccentricity
0.0003437
Mean motion
14.98330162 rev/d
Perigee alt
569.7 km
Apogee alt
574.4 km
Semi-major
6,950.2 km
B*
3.6838e-5
RAAN
213.9556°
Arg perigee
269.5817°
Mean anomaly
90.4948°
Rev number
18,181

§ Raw data

STARLINK-59631 56780U 23078P   26263.14684398  .00000347  00000+0  36838-4 0  99932 56780  69.9996 213.9556 0003437 269.5817  90.4948 14.98330162181812

JSON: /api/v1/satellites/56780 · /tle

For live sub-satellite position, see the globe view (requires WebGL).

§ Visibility from observer

Set your observer location to see the next 7 days of passes ≥ 10°. The values pass through the URL so the page stays shareable.

No JS? Fill the form by hand. The geolocation button needs JavaScript.